Change the Weather History Date:

Friday, May 2, 2014

  Actual Average Record
Temperature  
Mean Temperature 48 °F -  
Max Temperature 64 °F 66 °F 93 °F (1987)
Min Temperature 32 °F 39 °F 21 °F (1961)
Degree Days  
Heating Degree Days 17    
Moisture  
Dew Point 36 °F    
Average Humidity 64    
Maximum Humidity 99    
Minimum Humidity 30    
Precipitation  
Precipitation 0.00 in - - ()
Sea Level Pressure  
Sea Level Pressure 29.80 in    
Wind  
Wind Speed 7 mph (West)    
Max Wind Speed 21 mph    
Max Gust Speed 26 mph    
Visibility 10 miles    
Events      
Averages and records for this station are not official NWS values.
T = Trace of Precipitation, MM = Missing Value Source: NWS Daily Summary

Daily Weather History Graph

Daily Weather History Graph

Search for Another Location

Airport or City:

Trip Planner

Search our weather history database for the weather conditions in past years. The results will help you decide how hot, cold, wet, or windy it might be!

Date:

Astronomy

May. 02, 2014 Rise Set
Actual Time 6:15 AM CDT 8:23 PM CDT
Civil Twilight 5:44 AM CDT 8:54 PM CDT
Nautical Twilight 5:06 AM CDT 9:33 PM CDT
Astronomical Twilight 4:24 AM CDT 10:15 PM CDT
Moon 8:51 AM CDT (5/2) 11:48 PM CDT (5/2)
Length of Visible Light 15h 10m
Length of Day
14h 08m
Waxing Crescent, 12% of the Moon is Illuminated
May 2
Waxing Crescent
May 6
First Quarter
May 14
Full
May 21
Last Quarter
May 28
New

Hourly Weather History & Observations

Time (CDT) Temp. Windchill Dew Point Humidity Pressure Visibility Wind Dir Wind Speed Gust Speed Precip Events Conditions
12:15 AM 39.2 °F 37.0 °F 36.1 °F 89% 29.92 in 10.0 mi West 3.5 mph - N/A   Mostly Cloudy
12:35 AM 37.8 °F - 34.5 °F 88% 29.93 in 10.0 mi Calm Calm - N/A   Clear
12:55 AM 37.4 °F 33.8 °F 35.1 °F 91% 29.92 in 10.0 mi WSW 4.6 mph - N/A   Clear
1:15 AM 37.4 °F - 34.9 °F 91% 29.92 in 10.0 mi Calm Calm - N/A   Clear
1:55 AM 35.6 °F - 33.3 °F 91% 29.91 in 10.0 mi Calm Calm - N/A   Clear
2:15 AM 34.7 °F - 32.5 °F 92% 29.90 in 10.0 mi Calm Calm - N/A   Clear
2:35 AM 34.2 °F 31.2 °F 32.4 °F 93% 29.90 in 10.0 mi SSW 3.5 mph - N/A   Clear
2:55 AM 34.9 °F 30.8 °F 33.6 °F 95% 29.89 in 10.0 mi SSW 4.6 mph - N/A   Clear
3:15 AM 34.2 °F 30.0 °F 32.9 °F 95% 29.89 in 10.0 mi SSW 4.6 mph - N/A   Clear
3:35 AM 34.0 °F 31.0 °F 33.1 °F 96% 29.89 in 10.0 mi SSW 3.5 mph - N/A   Clear
3:55 AM 34.3 °F 30.2 °F 33.6 °F 97% 29.88 in 10.0 mi South 4.6 mph - N/A   Clear
4:15 AM 34.2 °F 30.0 °F 33.4 °F 97% 29.88 in 10.0 mi South 4.6 mph - N/A   Clear
4:35 AM 34.7 °F 29.6 °F 33.8 °F 97% 29.87 in 10.0 mi South 5.8 mph - N/A   Clear
4:55 AM 33.8 °F 29.6 °F 33.1 °F 97% 29.87 in 10.0 mi South 4.6 mph - N/A   Clear
5:15 AM 32.2 °F 28.9 °F 32.0 °F 99% 29.87 in 10.0 mi South 3.5 mph - N/A   Clear
5:35 AM 33.3 °F 27.9 °F 33.1 °F 99% 29.86 in 10.0 mi South 5.8 mph - N/A   Clear
5:55 AM 33.8 °F 28.6 °F 33.3 °F 98% 29.85 in 10.0 mi South 5.8 mph - N/A   Clear
6:15 AM 33.8 °F 29.6 °F 33.1 °F 97% 29.85 in 10.0 mi South 4.6 mph - N/A   Clear
6:35 AM 33.6 °F 29.4 °F 33.3 °F 99% 29.85 in 10.0 mi South 4.6 mph - N/A   Clear
6:55 AM 34.5 °F 28.6 °F 34.0 °F 98% 29.84 in 10.0 mi South 6.9 mph - N/A   Clear
7:15 AM 35.6 °F 31.7 °F 35.2 °F 99% 29.85 in 10.0 mi SSW 4.6 mph - N/A   Clear
7:35 AM 36.9 °F 33.1 °F 36.3 °F 98% 29.84 in 10.0 mi South 4.6 mph - N/A   Clear
7:55 AM 38.3 °F 33.9 °F 37.8 °F 98% 29.84 in 10.0 mi South 5.8 mph - N/A   Scattered Clouds
8:15 AM 40.3 °F 38.2 °F 39.2 °F 96% 29.82 in 10.0 mi South 3.5 mph - N/A   Scattered Clouds
8:35 AM 42.8 °F 38.6 °F 40.1 °F 90% 29.82 in 10.0 mi SSW 6.9 mph - N/A   Scattered Clouds
8:55 AM 45.9 °F 42.3 °F 39.6 °F 79% 29.81 in 10.0 mi SW 6.9 mph - N/A   Clear
9:15 AM 49.3 °F - 41.2 °F 74% 29.80 in 10.0 mi WSW 9.2 mph - N/A   Clear
9:35 AM 51.8 °F - 40.8 °F 66% 29.80 in 10.0 mi SW 10.4 mph - N/A   Mostly Cloudy
9:55 AM 53.8 °F - 37.9 °F 55% 29.79 in 10.0 mi WSW 13.8 mph 18.4 mph N/A   Overcast
10:15 AM 54.7 °F - 38.7 °F 55% 29.78 in 10.0 mi WSW 15.0 mph - N/A   Mostly Cloudy
10:35 AM 55.2 °F - 39.0 °F 54% 29.76 in 10.0 mi WSW 13.8 mph - N/A   Scattered Clouds
10:55 AM 56.8 °F - 40.6 °F 55% 29.75 in 10.0 mi SW 12.7 mph 17.3 mph N/A   Scattered Clouds
11:15 AM 59.5 °F - 40.1 °F 49% 29.75 in 10.0 mi SW 16.1 mph 19.6 mph N/A   Scattered Clouds
11:35 AM 60.1 °F - 39.9 °F 47% 29.75 in 10.0 mi WSW 17.3 mph 23.0 mph N/A   Scattered Clouds
12:15 PM 61.3 °F - 40.8 °F 47% 29.74 in 10.0 mi WSW 13.8 mph 21.9 mph N/A   Mostly Cloudy
12:35 PM 62.6 °F - 39.2 °F 42% 29.74 in 10.0 mi WNW 19.6 mph 25.3 mph N/A   Overcast
12:55 PM 62.1 °F - 40.3 °F 45% 29.73 in 10.0 mi WNW 20.7 mph 26.5 mph N/A   Overcast
1:15 PM 63.1 °F - 42.3 °F 46% 29.73 in 10.0 mi West 19.6 mph 26.5 mph N/A   Mostly Cloudy
1:35 PM 63.0 °F - 42.1 °F 46% 29.72 in 10.0 mi West 19.6 mph 23.0 mph N/A   Scattered Clouds
1:55 PM 61.2 °F - 40.5 °F 47% 29.72 in 10.0 mi WNW 15.0 mph 25.3 mph N/A   Clear
2:15 PM 60.8 °F - 41.5 °F 49% 29.72 in 10.0 mi West 15.0 mph 19.6 mph N/A   Mostly Cloudy
2:35 PM 62.2 °F - 40.5 °F 45% 29.72 in 10.0 mi WNW 16.1 mph 24.2 mph N/A   Mostly Cloudy
2:55 PM 61.9 °F - 39.2 °F 43% 29.72 in 10.0 mi NW 13.8 mph 24.2 mph N/A   Scattered Clouds
3:15 PM 63.0 °F - 37.2 °F 38% 29.72 in 10.0 mi NW 20.7 mph 25.3 mph N/A   Scattered Clouds
3:35 PM 63.9 °F - 38.5 °F 39% 29.72 in 10.0 mi NW 17.3 mph 26.5 mph N/A   Clear
3:55 PM 63.9 °F - 36.3 °F 36% 29.72 in 10.0 mi NW 18.4 mph 25.3 mph N/A   Clear
4:15 PM 64.4 °F - 34.5 °F 33% 29.73 in 10.0 mi NNW 12.7 mph 24.2 mph N/A   Scattered Clouds
4:35 PM 64.4 °F - 35.2 °F 34% 29.72 in 10.0 mi NNW 15.0 mph 26.5 mph N/A   Scattered Clouds
4:55 PM 64.8 °F - 35.2 °F 33% 29.73 in 10.0 mi NW 10.4 mph 24.2 mph N/A   Clear
5:15 PM 64.8 °F - 35.1 °F 33% 29.73 in 10.0 mi WNW 11.5 mph 20.7 mph N/A   Clear
5:35 PM 64.4 °F - 32.7 °F 31% 29.73 in 10.0 mi NNW 15.0 mph 25.3 mph N/A   Clear
5:55 PM 64.4 °F - 32.4 °F 30% 29.74 in 10.0 mi NNW 16.1 mph 25.3 mph N/A   Clear
6:15 PM 64.2 °F - 31.8 °F 30% 29.75 in 10.0 mi NNW 15.0 mph 24.2 mph N/A   Clear
6:35 PM 63.9 °F - 32.4 °F 31% 29.75 in 10.0 mi NNW 18.4 mph 24.2 mph N/A   Clear
6:55 PM 61.7 °F - 31.1 °F 32% 29.75 in 10.0 mi NNW 12.7 mph 21.9 mph N/A   Clear
7:15 PM 61.7 °F - 31.8 °F 33% 29.75 in 10.0 mi NNW 11.5 mph - N/A   Clear
7:35 PM 60.8 °F - 32.4 °F 34% 29.76 in 10.0 mi NNW 11.5 mph - N/A   Clear
7:55 PM 59.0 °F - 33.1 °F 38% 29.76 in 10.0 mi NNW 9.2 mph - N/A   Clear
8:15 PM 57.7 °F - 33.8 °F 41% 29.77 in 10.0 mi NNW 8.1 mph - N/A   Clear
8:35 PM 56.3 °F - 34.2 °F 43% 29.77 in 10.0 mi NNW 6.9 mph - N/A   Clear
8:55 PM 54.9 °F - 34.9 °F 47% 29.77 in 10.0 mi NNW 4.6 mph - N/A   Clear
9:15 PM 53.1 °F - 34.7 °F 50% 29.78 in 10.0 mi NNW 4.6 mph - N/A   Clear
9:35 PM 52.2 °F - 34.2 °F 50% 29.79 in 10.0 mi NNW 3.5 mph - N/A   Clear
9:55 PM 51.3 °F - 34.2 °F 52% 29.79 in 10.0 mi NNW 4.6 mph - N/A   Clear
10:15 PM 50.5 °F - 34.0 °F 53% 29.80 in 10.0 mi NW 3.5 mph - N/A   Clear
10:35 PM 50.9 °F - 34.5 °F 54% 29.81 in 10.0 mi Calm Calm - N/A   Clear
10:55 PM 50.0 °F - 34.3 °F 55% 29.81 in 10.0 mi Calm Calm - N/A   Clear
11:15 PM 48.2 °F - 36.0 °F 63% 29.82 in 10.0 mi Calm Calm - N/A   Clear
11:35 PM 46.8 °F - 34.7 °F 63% 29.82 in 10.0 mi Calm Calm - N/A   Clear
11:55 PM 45.3 °F - 34.0 °F 65% 29.82 in 10.0 mi Calm Calm - N/A   Clear